Delta, CO

3:56 PM MST on January 17, 2018 (GMT -0700)
Delta

Weather History for KAJZ - January, 2014

Change the Weather History Date:

Thursday, January 9, 2014

  Actual Average (KMTJ) Record (KMTJ)
Temperature  
Mean Temperature 31 °F -  
Max Temperature 41 °F 37 °F 53 °F (2005)
Min Temperature 21 °F 17 °F 3 °F (2013)
Degree Days  
Heating Degree Days 34    
Moisture  
Dew Point 27 °F    
Average Humidity 84    
Maximum Humidity 94    
Minimum Humidity 65    
Precipitation  
Precipitation 0.00 in - - ()
Sea Level Pressure  
Sea Level Pressure 30.01 in    
Wind  
Wind Speed 3 mph (ENE)    
Max Wind Speed 13 mph    
Max Gust Speed -    
Visibility 8 miles    
Events Rain , Snow    
Averages and records for this station are not official NWS values.
T = Trace of Precipitation, MM = Missing Value Source: NWS Daily Summary

Daily Weather History Graph

Daily Weather History Graph

Search for Another Location

Airport or City:

Trip Planner

Search our weather history database for the weather conditions in past years. The results will help you decide how hot, cold, wet, or windy it might be!

Date:

Astronomy

Jan. 09, 2014 Rise Set
Actual Time 7:30 AM MST 5:08 PM MST
Civil Twilight 7:01 AM MST 5:38 PM MST
Nautical Twilight 6:28 AM MST 6:11 PM MST
Astronomical Twilight 5:55 AM MST 6:43 PM MST
Moon 12:36 PM MST (1/9) 1:42 AM MST (1/9)
Length of Visible Light 10h 37m
Length of Day
9h 38m
Waxing Gibbous, 66% of the Moon is Illuminated
Jan 9
Waxing Gibbous
Jan 15
Full
Jan 23
Last Quarter
Jan 30
New
Feb 6
First Quarter

Hourly Weather History & Observations

Time (MST) Temp. Windchill Dew Point Humidity Pressure Visibility Wind Dir Wind Speed Gust Speed Precip Events Conditions
12:15 AM 29.5 °F 25.9 °F 26.1 °F 87% 30.12 in 7.0 mi NE 3.5 mph - N/A   Overcast
12:35 AM 29.8 °F 26.3 °F 25.7 °F 85% 30.13 in 10.0 mi NNE 3.5 mph - N/A   Overcast
12:55 AM 30.0 °F - 26.2 °F 86% 30.12 in 10.0 mi Calm Calm - N/A   Overcast
1:15 AM 30.2 °F - 26.2 °F 85% 30.12 in 10.0 mi Calm Calm - N/A   Overcast
1:35 AM 30.6 °F - 26.1 °F 83% 30.12 in 10.0 mi Calm Calm - N/A   Overcast
1:55 AM 30.2 °F 26.7 °F 26.1 °F 85% 30.12 in 7.0 mi NNE 3.5 mph - N/A Snow Light Snow
2:15 AM 30.2 °F - 26.1 °F 85% 30.13 in 10.0 mi Calm Calm - N/A   Overcast
2:35 AM 30.4 °F 26.9 °F 26.2 °F 85% 30.11 in 10.0 mi East 3.5 mph - N/A   Overcast
2:55 AM 29.8 °F - 25.7 °F 85% 30.11 in 10.0 mi Calm Calm - N/A   Overcast
3:15 AM 28.9 °F - 26.1 °F 89% 30.12 in 7.0 mi Calm Calm - N/A   Overcast
3:35 AM 27.9 °F 24.0 °F 25.2 °F 90% 30.11 in 7.0 mi East 3.5 mph - N/A   Mostly Cloudy
3:55 AM 27.7 °F - 25.2 °F 90% 30.10 in 5.0 mi Calm Calm - N/A   Mostly Cloudy
4:15 AM 26.6 °F - 24.6 °F 92% 30.10 in 5.0 mi Calm Calm - N/A   Overcast
4:35 AM 27.9 °F - 25.7 °F 92% 30.09 in 7.0 mi Calm Calm - N/A   Overcast
4:55 AM 27.1 °F 21.8 °F 24.8 °F 91% 30.07 in 5.0 mi ESE 4.6 mph - N/A   Overcast
5:15 AM 25.0 °F 20.7 °F 23.2 °F 93% 30.07 in 3.0 mi East 3.5 mph - N/A   Scattered Clouds
5:35 AM 23.9 °F - 22.3 °F 94% 30.07 in 3.0 mi Calm Calm - N/A   Clear
5:55 AM 23.9 °F - 22.3 °F 94% 30.07 in 2.0 mi Calm Calm - N/A   Scattered Clouds
6:15 AM 24.6 °F - 23.0 °F 94% 30.07 in 2.5 mi Calm Calm - N/A   Scattered Clouds
6:35 AM 22.1 °F - 20.1 °F 92% 30.07 in 4.0 mi Calm Calm - N/A   Mostly Cloudy
6:55 AM 21.2 °F 16.4 °F 19.2 °F 92% 30.07 in 4.0 mi ENE 3.5 mph - N/A   Scattered Clouds
7:15 AM 21.2 °F 16.4 °F 19.4 °F 93% 30.07 in 3.0 mi East 3.5 mph - N/A   Clear
7:35 AM 21.6 °F - 19.8 °F 93% 30.07 in 2.0 mi Calm Calm - N/A   Clear
7:55 AM 21.4 °F - 19.6 °F 93% 30.07 in 1.8 mi Calm Calm - N/A   Mostly Cloudy
8:15 AM 23.5 °F - 21.9 °F 94% 30.07 in 4.0 mi Calm Calm - N/A   Overcast
8:35 AM 25.2 °F 20.9 °F 23.0 °F 91% 30.08 in 7.0 mi East 3.5 mph - N/A   Overcast
8:55 AM 24.6 °F - 22.1 °F 90% 30.08 in 7.0 mi Calm Calm - N/A   Overcast
9:15 AM 26.6 °F - 23.5 °F 88% 30.08 in 5.0 mi Calm Calm - N/A   Overcast
9:35 AM 28.9 °F - 24.4 °F 83% 30.08 in 7.0 mi Calm Calm - N/A   Overcast
9:55 AM 30.6 °F - 24.8 °F 79% 30.07 in 10.0 mi Calm Calm - N/A   Overcast
10:15 AM 32.0 °F 28.7 °F 25.0 °F 75% 30.07 in 10.0 mi ENE 3.5 mph - N/A   Overcast
10:35 AM 33.1 °F 28.7 °F 26.1 °F 75% 30.06 in 10.0 mi ENE 4.6 mph - N/A   Overcast
10:55 AM 33.3 °F 28.9 °F 26.6 °F 77% 30.05 in 10.0 mi East 4.6 mph - N/A   Overcast
11:15 AM 33.3 °F 28.9 °F 27.0 °F 78% 30.04 in 7.0 mi East 4.6 mph - N/A   Overcast
11:35 AM 34.0 °F 31.0 °F 27.3 °F 77% 30.02 in 10.0 mi East 3.5 mph - N/A   Overcast
11:55 AM 34.0 °F - 27.5 °F 77% 30.01 in 10.0 mi Calm Calm - N/A   Overcast
12:15 PM 34.5 °F - 27.5 °F 76% 30.00 in 10.0 mi Calm Calm - N/A   Overcast
12:35 PM 34.3 °F - 27.1 °F 75% 29.98 in 10.0 mi Calm Calm - N/A   Overcast
12:55 PM 36.9 °F 31.4 °F 28.4 °F 71% 29.96 in 7.0 mi NE 6.9 mph - N/A   Mostly Cloudy
1:35 PM 40.5 °F 33.6 °F 30.9 °F 69% 29.93 in 10.0 mi NNE 11.5 mph - N/A   Overcast
1:55 PM 40.1 °F 33.6 °F 31.1 °F 70% 29.92 in 10.0 mi NNE 10.4 mph - N/A   Overcast
2:15 PM 40.3 °F 33.4 °F 31.1 °F 70% 29.92 in 10.0 mi NNE 11.5 mph - N/A   Overcast
2:35 PM 40.6 °F 34.3 °F 31.1 °F 69% 29.91 in 10.0 mi NNE 10.4 mph - N/A   Overcast
2:55 PM 41.0 °F 34.7 °F 30.2 °F 65% 29.91 in 10.0 mi NE 10.4 mph - N/A   Overcast
3:15 PM 40.3 °F 33.9 °F 30.2 °F 67% 29.90 in 10.0 mi NE 10.4 mph - N/A   Overcast
4:15 PM 38.5 °F 35.0 °F 28.6 °F 68% 29.91 in 10.0 mi East 4.6 mph - N/A   Overcast
4:35 PM 37.6 °F 32.3 °F 28.0 °F 68% 29.90 in 10.0 mi ENE 6.9 mph - N/A   Overcast
4:55 PM 37.9 °F 30.0 °F 30.4 °F 74% 29.90 in 10.0 mi NNE 12.7 mph - N/A   Overcast
5:15 PM 36.9 °F 30.7 °F 31.3 °F 80% 29.91 in 10.0 mi NE 8.1 mph - N/A   Overcast
5:35 PM 36.0 °F 29.0 °F 32.0 °F 86% 29.90 in 10.0 mi NNE 9.2 mph - N/A   Overcast
5:55 PM 35.6 °F 29.2 °F 31.8 °F 86% 29.90 in 10.0 mi NNE 8.1 mph - N/A   Overcast
6:15 PM 36.0 °F 29.6 °F 32.0 °F 86% 29.91 in 10.0 mi NNE 8.1 mph - N/A   Overcast
6:35 PM 35.6 °F 28.6 °F 32.0 °F 87% 29.90 in 10.0 mi NNE 9.2 mph - N/A Rain Light Rain
6:55 PM 34.9 °F 30.8 °F 32.2 °F 90% 29.91 in 10.0 mi NNE 4.6 mph - N/A   Overcast
7:15 PM 34.9 °F 32.0 °F 32.2 °F 90% 29.91 in 10.0 mi North 3.5 mph - N/A   Overcast
7:35 PM 34.7 °F - 30.0 °F 83% 29.92 in 10.0 mi Calm Calm - N/A   Overcast
7:55 PM 33.8 °F - 29.7 °F 85% 29.92 in 10.0 mi Calm Calm - N/A   Overcast
8:15 PM 33.6 °F 30.6 °F 29.3 °F 84% 29.92 in 10.0 mi North 3.5 mph - N/A   Overcast
8:35 PM 33.3 °F - 31.1 °F 92% 29.91 in 10.0 mi Calm Calm - N/A   Overcast
8:55 PM 33.8 °F 30.8 °F 31.8 °F 92% 29.92 in 10.0 mi North 3.5 mph - N/A   Overcast
9:15 PM 34.2 °F 29.0 °F 32.0 °F 92% 29.92 in 7.0 mi North 5.8 mph - N/A Rain Light Rain
9:35 PM 33.4 °F 26.6 °F 31.1 °F 91% 29.93 in 3.0 mi WSW 8.1 mph - N/A Snow Light Snow
9:55 PM 34.0 °F - 31.1 °F 89% 29.93 in 4.0 mi Calm Calm - N/A Snow Light Snow
10:15 PM 32.0 °F 23.6 °F 29.8 °F 92% 29.93 in 7.0 mi South 10.4 mph - N/A   Overcast
10:35 PM 30.7 °F 20.9 °F 27.9 °F 89% 29.94 in 7.0 mi South 12.7 mph - N/A   Overcast
10:55 PM 30.0 °F 22.4 °F 26.6 °F 87% 29.95 in 7.0 mi South 8.1 mph - N/A   Mostly Cloudy
11:15 PM 29.7 °F 23.7 °F 25.7 °F 85% 29.95 in 10.0 mi SSW 5.8 mph - N/A   Scattered Clouds
11:35 PM 29.1 °F 20.6 °F 25.7 °F 87% 29.96 in 7.0 mi SSE 9.2 mph - N/A   Clear
11:55 PM 30.0 °F 21.1 °F 26.2 °F 86% 29.95 in 10.0 mi South 10.4 mph - N/A   Scattered Clouds